1488063600.99,36055,6.94,73276.5,-9.87,-30.89,-30.55,0,*52
1488063602.25,36056,7.0,73284.5,-9.85,-30.89,-30.61,0,*54
1488063603.53,36057,6.94,73282.0,-9.87,-30.77,-30.55,0,*51
1488063604.81,36058,6.94,73280.5,-9.87,-30.89,-30.55,0,*5F
1488063606.09,36059,6.94,73280.0,-9.87,-30.89,-30.55,0,*5E
1488063607.38,36060,7.0,73280.5,-9.87,-30.95,-30.61,0,*5E
1488063608.63,36061,6.94,73280.5,-9.87,-31.05,-30.61,0,*57
1488063609.92,36062,6.94,73276.8,-9.87,-31.11,-30.61,0,*51
1488063611.21,36063,6.94,73280.0,-9.87,-30.95,-30.61,0,*5D
1488063612.45,36064,6.94,73282.5,-9.91,-31.01,-30.67,0,*57
1488063613.72,36065,6.94,73284.0,-9.89,-31.11,-30.61,0,*58
1488063614.98,36066,6.94,73280.3,-9.89,-31.11,-30.61,0,*5B
1488063616.25,36067,7.0,73284.3,-9.89,-31.11,-30.61,0,*5A
1488063617.49,36068,6.94,73284.0,-9.89,-31.01,-30.61,0,*54
1488063618.72,36069,6.94,73284.3,-9.89,-30.83,-30.55,0,*59
1488063620.0,36070,6.94,73288.8,-9.91,-30.95,-30.55,0,*5F
1488063621.26,36071,7.0,73290.5,-9.91,-30.83,-30.39,0,*53
1488063622.49,36072,7.0,73290.3,-9.89,-30.77,-30.27,0,*5D
1488063623.77,36073,6.94,73284.5,-9.91,-30.77,-30.39,0,*5A
1488063624.98,36074,6.94,73288.0,-9.89,-30.67,-30.23,0,*5E
1488063626.24,36075,7.0,73286.8,-9.91,-30.67,-30.39,0,*5D
1488063627.47,36076,6.94,73286.3,-9.89,-30.77,-30.27,0,*59
1488063628.7,36077,7.0,73284.0,-9.89,-30.61,-30.27,0,*5F
1488063629.93,36078,7.0,73286.5,-9.89,-30.61,-30.11,0,*55
1488063631.18,36079,6.94,73282.5,-9.91,-30.55,-30.11,0,*5A
1488063632.4,36080,6.94,73280.0,-9.89,-30.45,-30.05,0,*51
1488063633.62,36081,6.94,73282.0,-9.89,-30.55,-30.23,0,*55
1488063634.85,36082,6.94,73280.8,-9.89,-30.55,-30.23,0,*56
1488063636.07,36083,6.94,73280.3,-9.89,-30.55,-30.23,0,*57
1488063637.35,36084,6.94,73282.3,-9.87,-30.55,-30.17,0,*59
1488063638.62,36085,6.94,73280.3,-9.87,-30.51,-30.05,0,*5F
1488063639.9,36086,6.94,73278.0,-9.87,-30.39,-30.01,0,*56
1488063641.18,36087,6.94,73280.0,-9.87,-30.51,-30.17,0,*5E
1488063642.43,36088,6.94,73282.5,-9.91,-30.61,-30.23,0,*52
1488063643.67,36089,6.94,73282.5,-9.89,-30.67,-30.39,0,*57
1488063644.9,36090,6.94,73280.5,-9.89,-30.77,-30.27,0,*51
1488063646.15,36091,6.94,73282.0,-9.87,-30.61,-30.33,0,*5C
1488063647.41,36092,6.94,73280.0,-9.89,-30.77,-30.39,0,*5C
1488063648.66,36093,6.94,73278.5,-9.87,-30.73,-30.23,0,*5C
1488063649.91,36094,6.94,73282.0,-9.87,-30.61,-30.23,0,*58
1488063651.15,36095,6.94,73278.8,-9.85,-30.77,-30.23,0,*5C
1488063652.38,36096,6.94,73276.0,-9.85,-30.89,-30.33,0,*5F
1488063653.64,36097,6.94,73278.3,-9.87,-30.77,-30.33,0,*5D
1488063654.92,36098,6.94,73282.5,-9.87,-30.95,-30.39,0,*54
1488063656.2,36099,6.94,73284.8,-9.87,-30.89,-30.39,0,*58
1488063657.45,36100,6.94,73286.5,-9.87,-31.05,-30.55,0,*56
1488063658.69,36101,6.94,73284.5,-9.89,-31.11,-30.45,0,*5D
1488063659.92,36102,7.0,73286.3,-9.89,-30.77,-30.23,0,*5F
1488063661.14,36103,6.94,73282.3,-9.89,-30.45,-30.05,0,*5B
1488063662.37,36104,6.94,73280.3,-9.89,-30.61,-30.23,0,*5E
1488063663.63,36105,6.94,73278.5,-9.89,-30.77,-30.39,0,*53
1488063664.88,36106,7.0,73284.8,-9.89,-30.77,-30.39,0,*50
1488063666.09,36107,6.94,73284.0,-9.89,-30.67,-30.27,0,*5F
1488063667.38,36108,6.94,73284.8,-9.91,-28.59,-27.99,0,*5E
1488063668.6,36109,6.94,73282.3,-9.85,-27.93,-27.45,0,*52
1488063669.85,36110,6.94,73282.0,-9.85,-27.99,-27.45,0,*50
1488063671.13,36111,6.94,73280.8,-9.83,-28.59,-28.09,0,*53
1488063672.36,36112,6.94,73274.3,-9.81,-28.97,-28.47,0,*5A
1488063673.6,36113,6.94,73278.5,-9.79,-29.35,-28.85,0,*5B
1488063674.86,36114,7.0,73276.0,-9.79,-29.39,-28.91,0,*55
1488063676.09,36115,6.94,73274.0,-9.79,-29.61,-29.17,0,*56
1488063677.33,36116,7.0,73274.3,-9.77,-29.23,-28.85,0,*57
1488063678.57,36117,6.94,73268.5,-9.77,-29.23,-28.85,0,*56
1488063679.86,36118,6.94,73274.0,-9.77,-29.73,-29.35,0,*56
1488063681.11,36119,6.94,73270.8,-9.75,-30.01,-29.51,0,*5A
1488063682.4,36120,6.94,73272.3,-9.77,-29.89,-29.35,0,*58
1488063683.65,36121,7.0,73270.8,-9.75,-30.01,-29.39,0,*5F
1488063684.88,36122,7.0,73268.0,-9.75,-30.17,-29.67,0,*50
1488063686.11,36123,7.0,73268.3,-9.73,-30.33,-29.83,0,*5B
1488063687.36,36124,6.94,73260.8,-9.75,-30.39,-29.89,0,*5A
1488063688.61,36125,6.94,73264.3,-9.75,-30.55,-29.89,0,*51
1488063689.86,36126,6.94,73270.3,-9.75,-30.55,-30.01,0,*5A
1488063691.12,36127,6.94,73270.5,-9.75,-30.73,-30.05,0,*5B
1488063692.37,36128,6.94,73272.0,-9.75,-30.61,-30.01,0,*53
1488063693.6,36129,6.94,73274.3,-9.75,-30.45,-29.89,0,*5C
1488063694.85,36130,6.94,73272.5,-9.75,-30.55,-30.01,0,*5D
1488063696.13,36131,6.94,73274.0,-9.77,-30.51,-29.89,0,*52
1488063697.42,36132,7.0,73280.8,-9.77,-30.61,-29.89,0,*52
1488063698.67,36133,7.0,73280.5,-9.77,-30.51,-29.95,0,*5D
1488063699.9,36134,7.0,73286.3,-9.77,-30.45,-29.95,0,*5F
1488063701.13,36135,7.0,73284.5,-9.77,-30.45,-29.95,0,*5E
1488063702.38,36136,7.0,73284.0,-9.77,-30.45,-29.89,0,*50
1488063703.64,36137,6.94,73286.8,-9.77,-30.45,-30.05,0,*5D
1488063704.88,36138,6.94,73286.3,-9.79,-30.61,-30.05,0,*5A
1488063706.11,36139,7.0,73286.0,-9.79,-30.61,-30.11,0,*5E
1488063707.37,36140,6.94,73280.3,-9.77,-29.61,-29.01,0,*5F
1488063708.64,36141,6.94,73274.8,-9.77,-29.35,-28.69,0,*50
1488063709.9,36142,7.0,73274.0,-9.77,-29.57,-29.01,0,*58
1488063711.13,36143,6.94,73268.5,-9.75,-29.51,-28.97,0,*53
1488063712.39,36144,6.94,73270.3,-9.73,-30.05,-29.67,0,*55
1488063713.64,36145,6.94,73264.8,-9.75,-29.89,-29.39,0,*55
1488063714.9,36146,6.94,73264.8,-9.75,-30.01,-29.51,0,*50
1488063716.17,36147,6.94,73266.0,-9.73,-29.89,-29.29,0,*50
1488063717.45,36148,6.94,73264.0,-9.73,-29.89,-29.39,0,*5E
1488063718.73,36149,7.0,73266.5,-9.73,-29.89,-29.29,0,*5E
1488063720.0,36150,6.94,73264.0,-9.73,-30.01,-29.29,0,*5E
1488063721.28,36151,6.94,73266.8,-9.73,-30.01,-29.51,0,*50
1488063722.53,36152,6.94,73266.8,-9.73,-30.17,-29.57,0,*52
1488063723.74,36153,7.0,73270.8,-9.75,-30.23,-29.67,0,*51
1488063724.99,36154,6.94,73268.3,-9.73,-30.17,-29.57,0,*54
1488063726.25,36155,6.94,73268.0,-9.73,-30.17,-29.57,0,*55
1488063727.48,36156,6.94,73268.3,-9.73,-30.33,-29.67,0,*53
1488063728.68,36157,6.94,73272.5,-9.75,-30.33,-29.83,0,*5E
1488063729.91,36158,6.94,73270.3,-9.73,-30.23,-29.67,0,*5C
1488063731.11,36159,6.94,73270.8,-9.75,-30.23,-29.83,0,*51
1488063732.34,36160,6.94,73264.8,-9.73,-30.33,-29.83,0,*5C
1488063733.56,36161,6.94,73266.0,-9.75,-30.23,-29.73,0,*55
1488063734.79,36162,7.0,73266.5,-9.73,-30.23,-29.83,0,*5F
1488063736.04,36163,6.94,73264.0,-9.73,-30.33,-30.01,0,*5D
1488063737.29,36164,6.94,73264.8,-9.73,-30.39,-29.83,0,*52
1488063738.54,36165,6.94,73266.3,-9.73,-30.45,-30.01,0,*5A
1488063739.82,36166,6.94,73264.8,-9.73,-30.61,-30.17,0,*58
1488063741.08,36167,6.94,73270.0,-9.75,-30.61,-30.17,0,*5F
1488063742.35,36168,6.94,73274.8,-9.73,-30.55,-30.01,0,*56
1488063743.63,36169,6.94,73278.5,-9.73,-30.61,-29.89,0,*58
1488063744.86,36170,7.0,73278.3,-9.75,-30.45,-29.89,0,*50
1488063746.13,36171,7.0,73276.8,-9.73,-30.55,-30.01,0,*5E
1488063747.36,36172,6.94,73274.8,-9.75,-30.45,-30.01,0,*5A
1488063748.63,36173,6.94,73276.3,-9.73,-30.55,-29.89,0,*54
1488063749.83,36174,6.94,73272.3,-9.75,-30.45,-29.83,0,*5E
1488063751.06,36175,6.94,73270.8,-9.75,-30.33,-29.73,0,*51
1488063752.32,36176,6.94,73274.8,-9.73,-30.55,-29.73,0,*54
1488063753.55,36177,6.94,73276.8,-9.75,-30.45,-29.73,0,*52
1488063754.75,36178,6.94,73278.0,-9.75,-30.45,-29.67,0,*58
1488063755.97,36179,6.94,73278.5,-9.75,-30.45,-29.73,0,*5C
1488063757.17,36180,6.94,73282.8,-9.75,-30.45,-29.57,0,*5C
1488063758.39,36181,6.94,73284.0,-9.75,-30.45,-29.73,0,*5B
1488063759.61,36182,6.94,73280.5,-9.75,-30.39,-29.67,0,*56
1488063760.81,36183,6.94,73278.5,-9.75,-30.23,-29.67,0,*5C
1488063762.04,36184,6.94,73276.8,-9.77,-30.23,-29.61,0,*5F
1488063763.27,36185,6.94,73276.5,-9.77,-30.23,-29.45,0,*58
1488063764.51,36186,7.0,73276.0,-9.77,-30.11,-29.61,0,*5C
1488063765.73,36187,6.94,73276.3,-9.75,-30.05,-29.67,0,*5C
1488063766.99,36188,6.94,73278.5,-9.77,-30.27,-29.73,0,*54
1488063768.2,36189,7.0,73280.5,-9.75,-30.23,-29.67,0,*56
1488063769.43,36190,6.94,73278.3,-9.77,-30.27,-29.79,0,*57
1488063770.69,36191,6.94,73274.0,-9.77,-30.27,-29.73,0,*5C
1488063771.97,36192,6.94,73268.8,-9.77,-30.39,-29.89,0,*55
1488063773.19,36193,6.94,73266.3,-9.77,-30.45,-29.95,0,*52
1488063774.42,36194,6.94,73258.8,-9.77,-30.45,-29.95,0,*55
1488063775.68,36195,7.0,73260.8,-9.79,-30.51,-29.89,0,*52
1488063776.93,36196,6.94,73266.5,-9.79,-30.51,-29.89,0,*51
1488063778.22,36197,7.0,73272.0,-9.77,-30.61,-29.89,0,*5D
1488063779.47,36198,6.94,73268.0,-9.79,-30.51,-29.89,0,*5F
1488063780.73,36199,6.94,73268.3,-9.77,-30.51,-29.95,0,*5D
1488063781.96,36200,6.94,73260.5,-9.79,-30.45,-29.89,0,*58
1488063783.21,36201,6.94,73270.3,-9.79,-30.51,-29.89,0,*5C
1488063784.41,36202,6.94,73270.0,-9.79,-30.45,-29.79,0,*55
1488063785.63,36203,6.94,73270.8,-9.77,-30.45,-29.61,0,*53
1488063786.88,36204,6.94,73270.3,-9.79,-30.39,-29.73,0,*52
1488063788.07,36205,6.94,73268.8,-9.79,-30.45,-29.79,0,*52
1488063789.31,36206,7.0,73276.3,-9.77,-30.27,-29.45,0,*54
1488063790.51,36207,6.94,73276.0,-9.79,-30.11,-29.45,0,*5E
1488063791.74,36208,6.94,73274.3,-9.79,-30.05,-29.45,0,*54
1488063792.95,36209,7.0,73280.8,-9.79,-30.27,-29.57,0,*56
1488063794.19,36210,6.94,73278.0,-9.77,-30.27,-29.57,0,*50
1488063795.39,36211,6.94,73276.8,-9.79,-30.23,-29.57,0,*5B
1488063796.64,36212,7.0,73280.3,-9.79,-29.73,-29.01,0,*56
1488063797.87,36213,6.94,73278.0,-9.79,-29.79,-29.17,0,*5A
1488063799.12,36214,6.94,73278.3,-9.79,-29.89,-29.17,0,*52
1488063800.33,36215,6.94,73276.0,-9.79,-29.95,-29.23,0,*59
1488063801.53,36216,6.94,73282.0,-9.79,-29.95,-29.23,0,*5A
1488063802.76,36217,7.0,73282.3,-9.79,-28.53,-27.99,0,*5F
1488063804.0,36218,6.94,73278.8,-9.77,-28.31,-27.51,0,*5E
1488063805.26,36219,7.0,73278.8,-9.77,-28.15,-27.39,0,*57
1488063806.48,36220,7.0,73276.3,-9.75,-28.15,-27.45,0,*54
1488063807.76,36221,7.0,73276.3,-9.73,-28.25,-27.61,0,*56
1488063809.0,36222,6.94,73268.3,-9.75,-28.53,-28.09,0,*53
1488063810.22,36223,6.94,73270.8,-9.71,-28.59,-27.93,0,*50
1488063811.48,36224,7.0,73274.0,-9.71,-28.79,-28.09,0,*59
1488063812.74,36225,6.94,73268.5,-9.67,-28.91,-28.21,0,*53
1488063813.97,36226,6.94,73270.0,-9.71,-28.97,-28.25,0,*55
1488063815.19,36227,7.0,73272.5,-9.67,-29.45,-28.79,0,*54
1488063816.42,36228,7.0,73272.0,-9.67,-29.61,-28.91,0,*5B
1488063817.65,36229,6.94,73272.0,-9.67,-29.79,-28.91,0,*53
1488063818.92,36230,6.94,73276.5,-9.65,-29.73,-29.01,0,*5B
1488063820.17,36231,6.94,73276.5,-9.65,-29.73,-29.07,0,*5C
1488063821.42,36232,6.94,73274.8,-9.65,-29.79,-29.17,0,*54
1488063822.62,36233,6.94,73280.5,-9.67,-29.95,-29.23,0,*52
1488063823.84,36234,6.94,73276.8,-9.67,-29.79,-28.91,0,*5F
1488063825.1,36235,6.94,73278.5,-9.67,-29.51,-28.79,0,*52
1488063826.35,36236,6.94,73274.3,-9.65,-29.23,-28.59,0,*54
1488063827.6,36237,7.0,73278.0,-9.65,-29.07,-28.43,0,*58
1488063828.86,36238,6.94,73274.8,-9.65,-28.75,-28.15,0,*50
1488063830.11,36239,6.94,73274.3,-9.63,-28.43,-27.83,0,*52
1488063831.37,36240,6.94,73268.5,-9.65,-29.01,-28.37,0,*5D
1488063832.59,36241,7.0,73278.3,-9.63,-29.17,-28.53,0,*5F
1488063833.82,36242,7.0,73286.0,-9.63,-29.17,-28.53,0,*5C
1488063835.05,36243,7.0,73280.5,-9.63,-28.43,-27.67,0,*55
1488063836.25,36244,6.94,73274.3,-9.59,-28.15,-27.51,0,*5D
1488063837.48,36245,6.94,73272.0,-9.59,-28.79,-28.15,0,*59
1488063838.74,36246,6.94,73264.3,-9.59,-29.17,-28.47,0,*54
1488063839.94,36247,6.94,73260.0,-9.59,-29.23,-28.69,0,*5E
1488063841.15,36248,6.94,73264.3,-9.59,-29.57,-28.97,0,*53
1488063842.35,36249,6.94,73266.3,-9.59,-29.57,-28.97,0,*52
1488063843.56,36250,6.94,73270.8,-9.59,-29.23,-28.53,0,*51
1488063844.79,36251,7.0,73270.5,-9.59,-29.23,-28.47,0,*55
1488063846.02,36252,6.94,73270.0,-9.59,-29.23,-28.47,0,*56
1488063847.25,36253,6.94,73268.3,-9.59,-28.85,-28.09,0,*50
1488063848.5,36254,6.94,73268.8,-9.57,-28.97,-28.43,0,*54
1488063849.78,36255,6.94,73272.3,-9.57,-29.35,-28.75,0,*59
1488063851.04,36256,6.94,73272.0,-9.55,-29.35,-28.79,0,*54
1488063852.3,36257,7.0,73276.0,-9.55,-29.51,-28.91,0,*51
1488063853.5,36258,6.94,73278.0,-9.55,-29.67,-29.07,0,*55
1488063854.73,36259,7.0,73278.3,-9.57,-29.67,-28.97,0,*5E
1488063855.95,36260,6.94,73274.8,-9.57,-29.79,-29.07,0,*53
1488063857.17,36261,6.94,73272.5,-9.55,-29.79,-29.17,0,*51
1488063858.4,36262,6.94,73276.0,-9.55,-29.79,-29.17,0,*52
1488063859.65,36263,6.94,73278.3,-9.57,-29.95,-29.29,0,*5E
1488063860.9,36264,6.94,73278.0,-9.57,-29.95,-29.17,0,*54
1488063862.15,36265,6.94,73276.8,-9.57,-29.83,-29.29,0,*5F
1488063863.4,36266,6.94,73278.3,-9.57,-29.83,-29.29,0,*5C
1488063864.65,36267,6.94,73278.5,-9.57,-29.95,-29.29,0,*5A
1488063865.91,36268,6.94,73276.8,-9.57,-29.83,-29.17,0,*5F
1488063867.14,36269,6.94,73276.5,-9.61,-29.83,-29.23,0,*5C
1488063868.37,36270,6.94,73280.8,-9.57,-29.95,-29.45,0,*56
1488063869.64,36271,6.94,73286.8,-9.57,-30.01,-29.29,0,*58
1488063870.88,36272,6.94,73284.5,-9.59,-30.05,-29.39,0,*50
1488063872.14,36273,6.94,73286.3,-9.59,-29.89,-29.39,0,*5D
1488063873.4,36274,6.94,73286.3,-9.59,-30.17,-29.51,0,*5B
1488063874.65,36275,6.94,73286.0,-9.59,-30.17,-29.39,0,*54
1488063875.87,36276,6.94,73282.5,-9.59,-30.01,-29.23,0,*5B
1488063877.1,36277,7.0,73290.8,-9.59,-29.89,-29.23,0,*52
1488063878.34,36278,6.94,73286.8,-9.59,-30.05,-29.39,0,*5A
1488063879.57,36279,6.94,73284.0,-9.59,-29.89,-29.23,0,*5C
1488063880.77,36280,6.94,73284.8,-9.59,-29.83,-29.23,0,*50
1488063881.99,36281,6.94,73284.3,-9.59,-30.05,-29.23,0,*57
1488063883.24,36282,6.94,73284.3,-9.57,-29.95,-29.29,0,*51
1488063884.53,36283,6.94,73284.5,-9.61,-29.89,-29.35,0,*55
1488063885.81,36284,6.94,73286.8,-9.61,-30.01,-29.35,0,*5A
1488063887.07,36285,6.94,73288.8,-9.59,-30.05,-29.35,0,*54
1488063888.28,36286,6.94,73290.0,-9.59,-30.05,-29.23,0,*50
1488063889.54,36287,6.94,73292.3,-9.59,-30.05,-29.35,0,*56
1488063890.78,36288,6.94,73292.8,-9.61,-30.05,-29.23,0,*55
1488063892.03,36289,7.0,73294.5,-9.61,-30.01,-29.23,0,*50
1488063893.25,36290,6.94,73292.0,-9.59,-30.01,-29.23,0,*53
1488063894.53,36291,6.94,73290.8,-9.61,-30.01,-29.35,0,*5E
1488063895.79,36292,6.94,73288.0,-9.59,-30.01,-29.35,0,*56
1488063897.04,36293,6.94,73290.5,-9.59,-30.01,-29.35,0,*57
1488063898.32,36294,6.94,73288.3,-9.61,-30.01,-29.39,0,*57
1488063899.6,36295,6.94,73282.8,-9.61,-29.89,-29.35,0,*52
1488063900.87,36296,6.94,73280.0,-9.61,-29.83,-29.35,0,*5B
1488063902.09,36297,6.94,73278.5,-9.63,-30.05,-29.61,0,*5F
1488063903.31,36298,7.0,73276.8,-9.63,-30.05,-29.45,0,*56
1488063904.51,36299,6.94,73278.5,-9.63,-30.11,-29.57,0,*51
1488063905.79,36300,6.94,73278.3,-9.65,-30.05,-29.39,0,*5B
1488063907.03,36301,6.94,73278.5,-9.63,-30.05,-29.29,0,*5D
1488063908.25,36302,6.94,73280.3,-9.63,-29.95,-29.29,0,*5F
1488063909.5,36303,6.94,73284.0,-9.63,-29.89,-29.29,0,*53
1488063910.78,36304,7.0,73286.5,-9.65,-29.39,-28.59,0,*5F
1488063912.02,36305,7.0,73282.0,-9.63,-29.39,-28.69,0,*5B
1488063913.27,36306,7.0,73282.5,-9.63,-29.39,-28.75,0,*55
1488063914.52,36307,6.94,73268.5,-9.63,-29.39,-28.75,0,*54
1488063915.78,36308,6.94,73266.8,-9.63,-29.29,-28.59,0,*54
1488063916.99,36309,7.0,73268.3,-9.63,-29.45,-28.85,0,*5E
1488063918.25,36310,6.94,73262.5,-9.65,-29.57,-28.91,0,*56
1488063919.47,36311,7.0,73276.5,-9.63,-29.45,-28.75,0,*58
1488063920.68,36312,6.94,73276.3,-9.63,-29.57,-28.85,0,*57
1488063921.89,36313,7.0,73280.0,-9.63,-29.57,-28.85,0,*56
1488063923.14,36314,7.0,73282.8,-9.63,-29.73,-29.01,0,*5A
1488063924.42,36315,7.0,73282.5,-9.65,-29.73,-28.91,0,*55
1488063925.65,36316,7.0,73284.0,-9.63,-29.61,-28.91,0,*53
1488063926.88,36317,6.94,73282.5,-9.63,-29.57,-29.01,0,*5F
1488063928.1,36318,6.94,73276.0,-9.65,-29.61,-29.07,0,*55
1488063929.32,36319,6.94,73278.0,-9.63,-29.79,-29.17,0,*5A
1488063930.6,36320,6.94,73276.3,-9.61,-29.73,-29.13,0,*5C
1488063931.88,36321,6.94,73276.3,-9.61,-29.73,-29.01,0,*5E
1488063933.1,36322,7.0,73276.3,-9.65,-29.79,-29.07,0,*55
1488063934.35,36323,7.0,73282.0,-9.65,-29.79,-29.17,0,*55
1488063935.57,36324,6.94,73278.3,-9.63,-29.79,-29.17,0,*54
1488063936.84,36325,7.0,73278.8,-9.65,-29.73,-29.17,0,*59
1488063938.07,36326,6.94,73270.5,-9.63,-29.61,-28.91,0,*50
1488063939.29,36327,7.0,73272.0,-9.63,-29.73,-29.07,0,*5C
1488063940.51,36328,6.94,73268.3,-9.63,-29.73,-29.07,0,*53
1488063941.78,36329,6.94,73270.5,-9.65,-29.73,-29.01,0,*52
1488063943.04,36330,6.94,73276.3,-9.65,-29.57,-28.91,0,*54
1488063944.3,36331,6.94,73278.8,-9.63,-29.39,-28.75,0,*51
1488063945.56,36332,6.94,73278.3,-9.65,-29.39,-28.85,0,*5B
1488063946.79,36333,6.94,73274.0,-9.63,-29.39,-28.69,0,*5E
1488063948.07,36334,6.94,73272.8,-9.65,-29.29,-28.59,0,*5D
1488063949.3,36335,6.94,73272.8,-9.65,-29.45,-28.69,0,*55
1488063950.58,36336,6.94,73274.5,-9.65,-29.29,-28.59,0,*5F
1488063951.81,36337,7.0,73278.8,-9.65,-29.45,-28.69,0,*57
1488063953.07,36338,6.94,73270.8,-9.65,-29.39,-28.69,0,*53
1488063954.31,36339,7.0,73274.5,-9.63,-29.39,-28.69,0,*54
1488063955.53,36340,6.94,73274.5,-9.63,-29.29,-28.69,0,*5B
1488063956.81,36341,7.0,73278.0,-9.65,-29.39,-28.75,0,*50
1488063958.06,36342,6.94,73274.5,-9.65,-29.29,-28.69,0,*5F
1488063959.32,36343,6.94,73274.3,-9.63,-29.39,-28.75,0,*54
1488063960.56,36344,7.0,73276.3,-9.63,-29.29,-28.75,0,*52
1488063961.84,36345,6.94,73274.0,-9.65,-29.29,-28.59,0,*5B
1488063963.07,36346,6.94,73282.5,-9.63,-29.29,-28.69,0,*5D
1488063964.33,36347,6.94,73284.3,-9.65,-29.39,-28.69,0,*5B
1488063965.53,36348,6.94,73286.8,-9.63,-29.45,-28.85,0,*5B
1488063966.79,36349,6.94,73276.8,-9.65,-29.39,-28.69,0,*55
1488063968.02,36350,6.94,73280.8,-9.63,-29.29,-28.69,0,*5A
1488063969.27,36351,6.94,73282.0,-9.65,-29.07,-28.43,0,*59
1488063970.47,36352,6.94,73280.5,-9.63,-29.07,-28.37,0,*5F
1488063971.7,36353,6.94,73280.0,-9.65,-29.07,-28.37,0,*58
1488063972.93,36354,6.94,73282.0,-9.63,-29.17,-28.53,0,*5A
1488063974.16,36355,6.94,73282.5,-9.63,-29.23,-28.43,0,*5D
1488063975.41,36356,6.94,73280.0,-9.63,-29.17,-28.43,0,*59
1488063976.61,36357,6.94,73282.3,-9.63,-29.07,-28.37,0,*5A
1488063977.84,36358,6.94,73282.0,-9.65,-29.23,-28.53,0,*57
1488063979.07,36359,6.94,73276.5,-9.65,-29.07,-28.37,0,*52
1488063980.27,36360,6.94,73280.3,-9.63,-29.23,-28.53,0,*5A
1488063981.52,36361,6.94,73284.0,-9.63,-29.17,-28.43,0,*5D
1488063982.78,36362,6.94,73286.5,-9.65,-28.25,-27.71,0,*56
1488063983.98,36363,6.94,73280.0,-9.63,-28.37,-27.71,0,*52
1488063985.24,36364,6.94,73270.3,-9.65,-28.85,-28.21,0,*50
1488063986.48,36365,7.0,73270.0,-9.63,-28.85,-28.21,0,*57
1488063987.69,36366,6.94,73270.5,-9.63,-28.85,-28.15,0,*53
1488063988.95,36367,6.94,73278.3,-9.63,-28.91,-28.25,0,*54
1488063990.21,36368,6.94,73278.5,-9.61,-28.69,-28.09,0,*50
1488063991.46,36369,7.0,73274.0,-9.61,-28.15,-27.61,0,*5B
1488063992.66,36370,6.94,73268.0,-9.59,-28.15,-27.51,0,*5B
1488063993.89,36371,6.94,73264.3,-9.59,-28.37,-27.83,0,*55
1488063995.15,36372,6.94,73266.5,-9.59,-28.63,-27.99,0,*5C
1488063996.38,36373,6.94,73268.5,-9.59,-28.69,-28.09,0,*51
1488063997.62,36374,6.94,73274.0,-9.59,-28.79,-28.15,0,*5A
1488063998.87,36375,6.94,73274.0,-9.59,-29.13,-28.47,0,*51
1488064000.1,36376,6.94,73274.5,-9.59,-29.01,-28.37,0,*56
1488064001.33,36377,6.94,73270.0,-9.59,-28.97,-28.21,0,*5E
1488064002.57,36378,6.94,73274.8,-9.59,-28.85,-28.21,0,*52
1488064003.78,36379,6.94,73278.0,-9.59,-28.97,-28.31,0,*51
1488064005.01,36380,6.94,73276.8,-9.59,-29.13,-28.37,0,*5C
1488064006.21,36381,6.94,73282.0,-9.59,-28.97,-28.31,0,*56
1488064007.42,36382,7.0,73284.0,-9.59,-28.97,-28.31,0,*55
1488064008.65,36383,6.94,73286.3,-9.59,-29.13,-28.37,0,*5F
1488064009.88,36384,6.94,73286.0,-9.59,-29.13,-28.37,0,*58
1488064011.13,36385,6.94,73284.8,-9.59,-29.01,-28.47,0,*5D
1488064012.37,36386,6.94,73286.3,-9.59,-28.85,-28.21,0,*53
1488064013.57,36387,6.94,73284.8,-9.59,-28.69,-27.93,0,*56
1488064014.78,36388,6.94,73280.3,-9.59,-28.37,-27.77,0,*58
1488064016.03,36389,6.94,73278.8,-9.57,-28.59,-27.93,0,*55
1488064017.29,36390,6.94,73278.5,-9.57,-28.59,-27.89,0,*56
1488064018.57,36391,6.94,73280.5,-9.57,-28.75,-28.05,0,*52
1488064019.82,36392,6.94,73278.8,-9.55,-28.63,-28.09,0,*58
1488064021.08,36393,6.94,73280.3,-9.57,-28.75,-28.15,0,*51
1488064022.34,36394,6.94,73278.8,-9.57,-28.79,-28.15,0,*5A
1488064023.62,36395,6.94,73276.0,-9.57,-28.75,-28.05,0,*56
1488064024.9,36396,6.94,73272.3,-9.57,-28.63,-28.05,0,*52
1488064026.12,36397,6.94,73270.0,-9.55,-28.47,-27.77,0,*5D
1488064027.35,36398,6.94,73272.0,-9.55,-28.75,-28.15,0,*58
1488064028.61,36399,6.94,73274.0,-9.55,-28.75,-28.09,0,*54
1488064029.84,36400,6.94,73274.5,-9.55,-28.75,-28.15,0,*5E
1488064031.12,36401,6.94,73272.5,-9.57,-28.79,-28.25,0,*52
1488064032.38,36402,6.94,73278.5,-9.57,-28.75,-28.15,0,*5E
1488064033.61,36403,6.94,73276.5,-9.55,-28.75,-28.15,0,*5D
1488064034.87,36404,6.94,73278.3,-9.55,-28.79,-28.25,0,*55
1488064036.15,36405,6.94,73272.3,-9.57,-28.79,-28.25,0,*56
1488064037.43,36406,6.94,73272.5,-9.57,-28.79,-28.09,0,*5B
1488064038.63,36407,6.94,73274.8,-9.55,-28.31,-27.77,0,*52
1488064039.86,36408,7.0,73274.8,-9.55,-28.59,-27.93,0,*59
1488064041.12,36409,6.94,73274.0,-9.55,-28.75,-28.09,0,*5A
1488064042.37,36410,6.94,73270.5,-9.55,-28.79,-28.25,0,*50
1488064043.64,36411,6.94,73278.0,-9.53,-28.85,-28.25,0,*54
1488064044.9,36412,6.94,73272.0,-9.53,-28.85,-28.21,0,*53
1488064046.18,36413,6.94,73274.8,-9.53,-28.75,-28.09,0,*57
1488064047.44,36414,6.94,73272.0,-9.53,-28.53,-27.99,0,*52
1488064048.7,36415,6.94,73272.5,-9.53,-28.43,-27.89,0,*53
1488064049.96,36416,7.0,73276.3,-9.53,-28.69,-28.09,0,*5F
1488064051.24,36417,6.94,73272.8,-9.53,-28.59,-27.99,0,*5B
1488064052.52,36418,6.94,73270.0,-9.53,-28.59,-27.99,0,*54
1488064053.79,36419,6.94,73272.3,-9.53,-28.69,-28.05,0,*5C
1488064055.05,36420,6.94,73274.8,-9.53,-28.53,-27.99,0,*55
1488064056.31,36421,6.94,73274.5,-9.53,-28.69,-27.99,0,*5D
1488064057.53,36422,6.94,73272.5,-9.51,-28.69,-27.99,0,*5C
1488064058.79,36423,7.0,73276.0,-9.51,-28.59,-27.99,0,*5E
1488064059.99,36424,7.0,73278.5,-9.51,-28.53,-27.89,0,*52
1488064061.23,36425,6.94,73278.0,-9.51,-28.53,-27.99,0,*52
1488064062.45,36426,6.94,73280.0,-9.51,-28.59,-27.89,0,*5A
1488064063.74,36427,6.94,73280.0,-9.53,-28.59,-27.83,0,*53
1488064064.97,36428,6.94,73274.3,-9.53,-28.53,-27.89,0,*5C
1488064066.25,36429,6.94,73272.5,-9.53,-28.43,-27.83,0,*56
1488064067.49,36430,6.94,73274.5,-9.53,-28.53,-27.89,0,*55
1488064068.72,36431,7.0,73274.3,-9.51,-28.53,-27.99,0,*57
1488064069.98,36432,6.94,73276.8,-9.53,-28.53,-27.99,0,*56
1488064071.23,36433,6.94,73282.5,-9.51,-28.43,-27.83,0,*5F
1488064072.49,36434,6.94,73286.0,-9.53,-27.89,-27.35,0,*5E
1488064073.69,36435,6.94,73278.3,-9.51,-27.67,-27.03,0,*58
1488064074.96,36436,6.94,73280.5,-9.49,-27.61,-27.03,0,*54
1488064076.19,36437,6.94,73282.0,-9.49,-27.93,-27.29,0,*50
1488064077.47,36438,6.94,73274.3,-9.49,-27.99,-27.35,0,*58
1488064078.72,36439,6.94,73274.8,-9.49,-28.15,-27.61,0,*53
1488064079.99,36440,6.94,73274.0,-9.45,-28.15,-27.61,0,*51
1488064081.22,36441,6.94,73274.3,-9.45,-28.31,-27.77,0,*51
1488064082.5,36442,6.94,73272.8,-9.49,-28.47,-27.83,0,*54
1488064083.77,36443,6.94,73278.0,-9.49,-28.47,-27.83,0,*55
1488064085.02,36444,6.94,73276.8,-9.49,-28.21,-27.77,0,*59
1488064086.3,36445,6.94,73280.0,-9.49,-27.83,-27.19,0,*57
1488064087.52,36446,6.94,73280.5,-9.49,-27.77,-27.13,0,*55
1488064088.79,36447,6.94,73282.3,-9.45,-27.67,-27.19,0,*53
1488064090.07,36448,6.94,73282.5,-9.45,-27.61,-27.03,0,*51
1488064091.34,36449,6.94,73280.5,-9.41,-27.07,-26.77,0,*56
1488064092.63,36450,6.94,73278.3,-9.41,-26.71,-26.29,0,*55
1488064093.87,36451,6.94,73278.5,-9.39,-26.55,-26.03,0,*55
1488064095.14,36452,6.94,73272.8,-9.39,-26.93,-26.33,0,*5F
1488064096.39,36453,6.94,73270.5,-9.37,-27.07,-26.49,0,*51
1488064097.64,36454,6.94,73268.5,-9.39,-27.19,-26.71,0,*5C
1488064098.89,36455,6.94,73266.8,-9.35,-27.29,-26.71,0,*52
1488064100.13,36456,6.94,73264.0,-9.35,-27.67,-27.19,0,*54
1488064101.39,36457,7.0,73268.3,-9.35,-27.83,-27.35,0,*51
1488064102.64,36458,6.94,73266.3,-9.35,-27.89,-27.35,0,*54
1488064103.9,36459,6.94,73266.5,-9.35,-27.83,-27.35,0,*5F
1488064105.14,36460,6.94,73264.8,-9.35,-27.99,-27.51,0,*5C
1488064106.41,36461,6.94,73262.8,-9.33,-28.05,-27.67,0,*54
1488064107.66,36462,6.94,73268.3,-9.35,-28.21,-27.67,0,*57